This is the latest recevied weather packets stored in our database for station/object W8DRH-13. If no packets are shown the sender has not sent any weather packets the latest 10 day(s).
| Time | Temp. | Humidity | Pressure | Rain* | Wind** | Luminosity | Snow |
|---|---|---|---|---|---|---|---|
| 1777466498 | 11.11° C | 97% | 1008.4 hPa | 0 mm | - | 49 W/m² | - |
| 1777466193 | 11.11° C | 97% | 1008.3 hPa | 0 mm | - | 33 W/m² | - |
| 1777465889 | 11.11° C | 97% | 1008.6 hPa | 0 mm | - | 27 W/m² | - |
| 1777465586 | 11.11° C | 96% | 1008.3 hPa | 0 mm | - | 40 W/m² | - |
| 1777465281 | 11.11° C | 96% | 1008.4 hPa | 0 mm | - | 21 W/m² | - |
| 1777464970 | 11.67° C | 96% | 1008.5 hPa | 0 mm | - | 37 W/m² | - |
| 1777464665 | 11.11° C | 96% | 1008.2 hPa | 0 mm | - | 75 W/m² | - |
| 1777464361 | 11.11° C | 96% | 1008.6 hPa | 1.78 mm | - | 49 W/m² | - |
| 1777464057 | 11.11° C | 96% | 1008.5 hPa | 3.05 mm | - | 28 W/m² | - |
| 1777463751 | 11.11° C | 96% | 1008.8 hPa | 3.05 mm | - | 21 W/m² | - |
| 1777463446 | 11.11° C | 96% | 1008.9 hPa | 1.78 mm | - | 11 W/m² | - |
| 1777463143 | 11.11° C | 96% | 1008.8 hPa | 1.27 mm | - | 3 W/m² | - |
| 1777462839 | 11.11° C | 95% | 1008.9 hPa | 3.05 mm | - | 0 W/m² | - |
| 1777462534 | 11.67° C | 95% | 1008.7 hPa | 1.78 mm | - | 10 W/m² | - |
| 1777462231 | 11.67° C | 95% | 1008.7 hPa | 1.78 mm | - | 11 W/m² | - |
| 1777461927 | 11.67° C | 95% | 1008.2 hPa | 1.78 mm | - | 5 W/m² | - |
| 1777461624 | 11.11° C | 95% | 1008.2 hPa | 0 mm | - | 3 W/m² | - |
| 1777461319 | 11.11° C | 95% | 1007.8 hPa | 0 mm | - | 2 W/m² | - |
| 1777461015 | 11.11° C | 95% | 1008.1 hPa | 0 mm | - | 6 W/m² | - |
| 1777460705 | 11.11° C | 95% | 1007.8 hPa | 0 mm | - | 7 W/m² | - |
| 1777460401 | 11.11° C | 95% | 1007.3 hPa | 0 mm | - | 7 W/m² | - |
| 1777460096 | 11.11° C | 95% | 1007.2 hPa | 0 mm | - | 5 W/m² | - |
| 1777459794 | 11.11° C | 95% | 1007.3 hPa | 0 mm | - | 2 W/m² | - |
| 1777459491 | 11.67° C | 94% | 1007.4 hPa | 0 mm | - | 0 W/m² | - |
| 1777459188 | 11.67° C | 94% | 1007.5 hPa | 0 mm | - | 0 W/m² | - |
* Rain latest hour (hover to see other rain measurements)
** Current wind speed in m/s (hover to see current wind gust speed)